Home   Weather   Hialeah   Past weeks
Flag for USA

Past Weather in Hialeah, Florida, USA — Yesterday and Last 2 Weeks

Now
79 °F

Passing clouds.


Feels Like: 83 °F
Forecast: 91 / 78 °F
Wind: No wind

Location: Opa Locka Airport

Current Time: Jul 24, 2019 at 12:39:26 am

Latest Report: Jul 23, 2019 at 11:53 pm


Visibility: 10 mi

Pressure: 30.02 "Hg

Humidity: 84%

Dew Point: 74 °F

Location of HialeahLocation

Past Weather in Hialeah — Graph

°F

Hialeah Temperature Yesterday

Maximum temperature yesterday: 93 °F (at 1:53 pm)
Minimum temperature yesterday: 73 °F (at 4:35 pm)
Average temperature yesterday: 81 °F

High & Low Weather Summary for the Past Weeks

 TemperatureHumidityPressure
High93 °F (Jul 23, 1:53 pm)97% (Jul 12, 5:53 am)30.14 "Hg (Jul 12, 5:53 am)
Low73 °F (Jul 12, 4:00 am)50% (Jul 9, 2:53 pm)29.94 "Hg (Jul 23, 6:04 pm)
Average84 °F72%30.05 "Hg
* Reported Jul 8 10:53 pm — Jul 23 10:53 pm, Hialeah. Weather by CustomWeather, © 2019

Note: Actual official high and low records may vary slightly from our data, if they occured in-between our weather recording intervals... More about our weather records

Advertising

Hialeah Weather History for the Previous 24 Hours

Scroll right to see more
 ConditionsComfort  
Time TempWeatherWind HumidityBarometerVisibility
10:53 pm
Tue, Jul 23
80 °FPassing clouds.3 mph85%30.01 "Hg10 mi
9:53 pm79 °FClear.No wind90%30.00 "Hg10 mi
8:53 pm80 °FClear.3 mph85%29.99 "Hg10 mi
7:53 pm79 °FSunny.3 mph84%29.96 "Hg10 mi
6:53 pm78 °FSunny.N/A87%29.96 "Hg10 mi
6:04 pm76 °FLight rain. Scattered clouds.5 mph91%29.94 "Hg10 mi
5:53 pm75 °FThunderstorms. Scattered clouds.7 mph90%29.95 "Hg10 mi
5:30 pm75 °FThundershowers. Cloudy.8 mph94%29.96 "Hg10 mi
5:00 pm75 °FStrong thunderstorms. Fog.13 mph90%29.97 "Hg6 mi
4:35 pm73 °FStrong thunderstorms. Fog.13 mph90%29.98 "Hg2 mi
3:53 pm82 °FThunderstorms. Mostly cloudy.14 mph77%29.96 "Hg8 mi
3:25 pm83 °FThunderstorms. Mostly cloudy.10 mph72%29.95 "Hg8 mi
3:16 pm80 °FStrong thunderstorms. Mostly cloudy.14 mph69%29.96 "Hg8 mi
2:53 pm81 °FStrong thunderstorms. Cloudy.12 mph67%29.97 "Hg6 mi
2:17 pm90 °FPartly sunny.9 mph57%29.97 "Hg10 mi
1:53 pm93 °FPartly sunny.7 mph52%29.97 "Hg10 mi
12:53 pm91 °FSunny.8 mph52%29.99 "Hg10 mi
11:53 am90 °FSunny.5 mph54%30.01 "Hg10 mi
10:53 am88 °FSunny.5 mph57%30.01 "Hg10 mi
9:53 am86 °FSunny.5 mph63%30.01 "Hg10 mi
8:53 am83 °FSunny.7 mph72%30.01 "Hg10 mi
7:53 am79 °FSunny.6 mph88%30.00 "Hg10 mi
6:53 am77 °FSunny.No wind90%29.99 "Hg10 mi
5:53 am77 °FClear.3 mph90%29.98 "Hg10 mi
4:53 am77 °FClear.5 mph90%29.97 "Hg10 mi
3:53 am77 °FClear.5 mph90%29.97 "Hg10 mi
2:53 am78 °FClear.No wind87%29.98 "Hg10 mi
1:53 am78 °FClear.No wind84%29.98 "Hg10 mi
12:53 am79 °FClear.No wind82%29.98 "Hg10 mi
Weather by CustomWeather, © 2019

See weather overview